Chippewa, MI

9:40 PM EST on December 14, 2019 (GMT -0500)
Chippewa County International

Weather History for KCIU - September, 2019

Change the Weather History Date:

Sunday, September 1, 2019

  Actual Average Record
Temperature  
Mean Temperature 59 °F -  
Max Temperature 71 °F 72 °F 84 °F (2008)
Min Temperature 48 °F 47 °F 35 °F (1992)
Degree Days  
Heating Degree Days 6    
Growing Degree Days 9 (Base 50)    
Moisture  
Dew Point 50 °F    
Average Humidity 77    
Maximum Humidity 100    
Minimum Humidity 49    
Precipitation  
Precipitation 0.00 in - - ()
Sea Level Pressure  
Sea Level Pressure 30.18 in    
Wind  
Wind Speed 4 mph ()    
Max Wind Speed 12 mph    
Max Gust Speed 18 mph    
Visibility 8.2 miles    
Events Fog    
Averages and records for this station are not official NWS values.
T = Trace of Precipitation, MM = Missing Value Source: Averaged Metar Reports

Daily Weather History Graph

Daily Weather History Graph

Search for Another Location

Airport or City:

Astronomy

Sep. 01, 2019 Rise Set
Actual Time 6:58 AM EDT 8:16 PM EDT
Civil Twilight 6:26 AM EDT 8:47 PM EDT
Nautical Twilight 5:49 AM EDT 9:25 PM EDT
Astronomical Twilight 5:09 AM EDT 10:05 PM EDT
Moon 9:33 AM EDT (9/1) 9:55 PM EDT (9/1)
Length of Visible Light 14h 20m
Length of Day
13h 18m
Waxing Crescent, 8% of the Moon is Illuminated
Sep 1
Waxing Crescent
Sep 5
First Quarter
Sep 14
Full
Sep 21
Last Quarter
Sep 28
New

Hourly Weather History & Observations

Time (EDT) Temp. Dew Point Humidity Pressure Visibility Wind Dir Wind Speed Gust Speed Precip Events Conditions
12:56 AM 57.0 °F 50.0 °F 77% 30.28 in 10.0 mi South 5.8 mph - N/A   Clear
1:56 AM 55.0 °F 48.0 °F 77% 30.28 in 10.0 mi SSE 3.5 mph - N/A   Clear
2:56 AM 53.1 °F 48.0 °F 83% 30.27 in 10.0 mi SE 3.5 mph - N/A   Clear
3:56 AM 50.0 °F 46.9 °F 89% 30.27 in 10.0 mi Calm Calm - N/A   Clear
4:56 AM 48.9 °F 46.9 °F 93% 30.25 in 10.0 mi Calm Calm - N/A   Clear
5:56 AM 48.0 °F 46.0 °F 93% 30.25 in 10.0 mi Calm Calm - N/A   Clear
6:56 AM 48.9 °F 48.9 °F 100% 30.24 in 9.0 mi SSE 4.6 mph - N/A   Clear
7:03 AM 50.0 °F 50.0 °F 100% 30.24 in 1.0 mi SSE 5.8 mph - N/A   Clear
7:05 AM 50.0 °F 50.0 °F 100% 30.24 in 0.5 mi SSE 5.8 mph - N/A Fog Fog
7:20 AM 50.0 °F 48.2 °F 94% 30.24 in 0.2 mi SSE 5.8 mph - N/A Fog Fog
7:31 AM 50.0 °F 50.0 °F 100% 30.24 in 0.8 mi SE 3.5 mph - N/A   Clear
7:33 AM 50.0 °F 50.0 °F 100% 30.23 in 1.8 mi SE 3.5 mph - N/A   Clear
7:40 AM 50.0 °F 50.0 °F 100% 30.23 in 10.0 mi ESE 3.5 mph - N/A   Clear
7:56 AM 51.1 °F 51.1 °F 100% 30.23 in 10.0 mi Calm Calm - N/A   Clear
8:56 AM 57.9 °F 54.0 °F 87% 30.22 in 10.0 mi Variable 3.5 mph - N/A   Clear
9:56 AM 63.0 °F 52.0 °F 67% 30.22 in 10.0 mi SW 4.6 mph - N/A   Clear
10:56 AM 66.9 °F 51.1 °F 57% 30.21 in 10.0 mi Variable 5.8 mph - N/A   Clear
11:56 AM 69.1 °F 50.0 °F 51% 30.19 in 10.0 mi SW 5.8 mph - N/A   Clear
12:56 PM 69.1 °F 50.0 °F 51% 30.17 in 10.0 mi South 10.4 mph 17.3 mph N/A   Clear
1:56 PM 69.1 °F 50.0 °F 51% 30.15 in 10.0 mi SSW 11.5 mph 18.4 mph N/A   Clear
2:56 PM 70.0 °F 51.1 °F 51% 30.13 in 10.0 mi WSW 8.1 mph - N/A   Partly Cloudy
3:56 PM 70.0 °F 51.1 °F 51% 30.11 in 10.0 mi SW 8.1 mph 16.1 mph N/A   Mostly Cloudy
4:56 PM 70.0 °F 50.0 °F 49% 30.09 in 10.0 mi Variable 6.9 mph - N/A   Scattered Clouds
5:56 PM 69.1 °F 52.0 °F 54% 30.07 in 10.0 mi Variable 3.5 mph - N/A   Clear
6:56 PM 66.9 °F 53.1 °F 61% 30.06 in 10.0 mi South 4.6 mph - N/A   Partly Cloudy
7:56 PM 64.0 °F 53.1 °F 67% 30.04 in 10.0 mi South 6.9 mph - N/A   Overcast
8:56 PM 62.1 °F 53.1 °F 72% 30.04 in 7.0 mi South 5.8 mph - N/A   Overcast
9:56 PM 61.0 °F 54.0 °F 78% 30.03 in 5.0 mi South 5.8 mph - N/A   Haze
10:56 PM 59.0 °F 53.1 °F 81% 30.02 in 10.0 mi South 4.6 mph - N/A   Overcast
11:56 PM 59.0 °F 53.1 °F 81% 30.01 in 10.0 mi South 4.6 mph - N/A   Overcast